Location: Rounton
(54.4000°N, 1.3500°W)
Time: 11:33:59
(UTC+01:00)

Vanguard 1 - Pass Details

Date: 23 February 2024
Orbit: 653 x 3825 km, 34.2° (Epoch: 22 April)

Event Time Altitude Azimuth Distance (km) Brightness Sun altitude
Rises 23:20:12 0° 257° (WSW) 6,677 14.4 -43.8°
Reaches altitude 10° 23:24:33 10° 250° (WSW) 6,012 14.0 -44.0°
Enters shadow 23:33:28 30° 229° (SW) 5,040 13.3 -44.4°
